CAPE
3 3 3 2 2 2 2 1 2 1 3 2 2 2 2 1 0 0 0 0 0 1982 1913 1002 673 734 250 97 155 65 404 445 333 341 416 478 174 32 278 399 372 482 242 251 393
4 4 4 2 2 2 2 3 3 2 3 3 3 2 2 0 0 0 0 279 2049 1982 899 506 935 753 536 489 227 157 174 6 116 49 351 310 107 30 200 260 343 247 250 140 263
0 0 0 0 2 2 3 4 4 4 3 1 1 2 1 1 0 0 622 1535 1787 1819 0 211 328 444 482 484 290 218 188 74 75 231 205 81 264 165 200 251 221 149 181 101 223
0 0 0 0 0 0 0 0 0 0 0 0 1 1 0 0 0 0 461 1240 1598 779 0 14 533 529 16 380 247 236 333 167 413 425 458 285 253 419 288 221 227 213 105 94 91
0 0 0 0 0 0 0 0 0 0 0 0 2 0 0 0 0 4 216 1261 240 0 0 42 333 4 0 6 189 74 85 229 123 507 606 366 97 402 659 315 320 99 37 67 15
0 0 0 0 0 0 0 0 0 0 0 0 2 0 0 0 0 0 0 0 0 0 0 244 329 0 0 1 50 64 63 64 240 170 624 302 163 412 523 302 338 1 4 15 0
0 0 0 0 0 0 0 0 0 0 0 0 0 0 0 0 0 0 0 0 0 0 0 56 0 0 3 0 0 28 107 81 301 128 381 215 80 21 394 205 200 0 0 0 0
0 0 0 0 0 0 0 0 0 0 0 0 0 0 0 0 0 0 0 0 0 0 1 0 0 0 0 0 0 22 163 225 246 274 250 26 15 276 535 163 162 0 0 0 0
0 0 0 0 0 0 0 0 0 0 0 0 0 0 0 0 0 0 0 0 0 0 0 0 0 0 0 0 0 52 50 193 120 353 183 175 52 223 345 316 86 0 0 0 0
0 0 0 0 0 0 0 0 0 0 0 0 0 0 0 0 0 0 0 0 0 0 0 0 0 0 0 0 3 10 23 11 142 541 441 274 92 140 403 411 169 57 0 12 90
0 0 0 0 0 0 0 0 0 0 0 0 0 0 0 0 0 0 0 0 0 0 0 0 0 0 0 0 0 9 6 67 135 541 536 372 142 76 412 549 421 213 64 44 99
0 0 0 0 0 0 0 0 0 0 0 0 0 0 0 0 0 0 0 0 0 0 0 0 0 0 0 0 0 9 3 1 19 136 418 228 139 801 696 650 504 298 228 171 42
0 0 0 0 0 0 0 0 0 0 0 0 0 0 0 0 0 0 0 0 0 0 0 0 0 0 0 0 0 0 0 4 0 0 35 442 320 372 870 835 651 399 404 339 222
0 0 0 0 0 0 0 0 0 0 0 0 0 0 0 0 0 0 0 0 0 0 0 0 0 0 0 0 0 0 0 0 0 0 0 13 276 517 240 717 761 568 468 474 345
0 0 0 0 0 0 0 0 0 0 0 0 0 0 0 0 0 0 0 0 0 0 0 0 0 0 0 0 0 0 0 0 0 0 9 4 16 75 318 819 895 735 612 563 537
0 0 0 0 0 0 0 0 0 0 0 0 0 0 0 0 0 0 0 0 0 0 0 0 0 0 0 0 0 0 0 0 1 0 0 0 5 185 433 565 901 797 697 712 640
0 0 0 0 0 0 0 0 0 0 0 0 0 0 0 0 0 0 0 0 0 0 0 0 0 0 0 0 0 0 0 0 0 13 16 8 3 10 70 338 762 890 750 813 766
0 0 0 0 0 0 0 0 0 0 0 0 0 0 0 0 0 0 0 0 0 0 0 0 0 0 0 0 0 0 0 0 0 14 85 11 1 0 113 244 798 889 809 806 865
0 0 0 0 0 0 0 0 0 0 0 0 0 0 0 0 0 0 0 0 0 0 0 0 0 0 0 0 0 0 0 0 0 0 4 29 46 222 179 241 552 805 660 863 851
0 0 0 0 0 0 0 0 0 0 0 0 0 0 0 0 0 0 0 0 0 0 0 0 0 0 0 0 0 0 0 0 0 0 13 231 352 412 217 300 490 714 681 807 852
0 0 0 0 0 0 0 0 0 0 0 0 0 0 0 0 0 0 0 0 0 0 0 0 0 0 0 0 0 0 0 0 0 0 0 137 325 155 15 340 409 499 671 669 860
0 0 0 0 0 0 0 0 0 0 0 0 0 0 0 0 0 0 0 0 3 0 0 0 0 0 0 0 0 0 0 0 0 0 0 5 41 65 128 744 886 738 693 689 848
0 0 0 0 0 0 0 0 0 0 0 0 0 0 0 0 0 0 0 0 0 2 6 0 0 0 0 0 0 0 0 0 0 0 0 41 344 318 447 776 1112 1110 961 896 756
0 78 0 0 0 0 0 0 0 0 0 0 0 0 0 0 0 0 0 0 0 0 65 0 0 0 0 0 3 63 10 0 0 0 0 0 414 381 473 516 622 958 1080 1071 1192
0 0 8 8 0 0 0 0 0 0 0 0 0 0 0 0 0 22 80 79 59 83 0 0 0 0 0 1 30 62 47 33 0 0 0 72 544 390 750 807 1073 1434 1454 1100 967
0 0 0 0 0 0 0 0 5 0 0 0 0 0 0 0 1 4 10 28 39 12 44 73 20 25 27 71 102 75 42 33 159 184 136 509 440 627 577 1239 1464 1611 1547 1531 1881
0 0 0 0 0 0 0 0 0 0 0 0 0 0 0 0 0 0 0 0 1 3 0 24 10 0 0 21 24 135 69 93 182 578 584 451 459 731 1046 1346 1322 1467 1509 1469 1748
CIN
-0 -0 -0 -0 -0 -0 -0 -0 -0 -0 -0 -0 -0 -0 -0 -0 -0 -0 -0 -0 -0 -404 -353 -217 -88 -95 -49 -23 -237 -110 -89 -86 -59 -49 -23 -42 -23 -37 -22 -8 -12 -11 -106 -71 -31
-0 -0 -0 -0 -0 -0 -0 -0 -0 -0 -0 -0 -0 -0 -0 -0 -0 -0 -0 -630 -440 -438 -258 -102 -45 -51 -125 -83 -51 -235 -192 -66 -76 -54 -29 -8 -35 -31 -6 -15 -48 -95 -86 -77 -49
-0 -0 -0 -0 -0 -0 -0 -0 -0 -0 -0 -0 -0 -0 -0 -0 -0 -0 -598 -453 -482 -468 -0 -40 -46 -59 -106 -114 -78 -264 -201 -63 -53 -14 -21 -29 -5 -22 -67 -2 -25 -108 -107 -105 -41
-0 -0 -0 -0 -0 -0 -0 -0 -0 -0 -0 -0 -0 -0 -0 -0 -0 -0 -707 -520 -501 -476 -0 -20 -70 -26 -13 -119 -149 -162 -82 -15 -27 -58 -75 -37 -19 -71 -16 -40 -21 -21 -107 -116 -71
-0 -0 -0 -0 -0 -0 -0 -0 -0 -0 -0 -0 -0 -0 -0 -0 -0 -144 -792 -535 -365 -0 -0 -187 -73 -3 -0 -3 -58 -39 -12 -43 -86 -70 -69 -35 -14 -37 -28 -13 -12 -95 -143 -103 -131
-0 -0 -0 -0 -0 -0 -0 -0 -0 -0 -0 -0 -0 -0 -0 -0 -0 -0 -0 -0 -0 -0 -0 -71 -39 -0 -0 -6 -25 -61 -97 -76 -33 -110 -133 -86 -102 -37 -25 -5 -9 -49 -92 -145 -12
-0 -0 -0 -0 -0 -0 -0 -0 -0 -0 -0 -0 -0 -0 -0 -0 -0 -0 -0 -0 -0 -0 -0 -136 -0 -0 -45 -0 -0 -167 -131 -34 -19 -40 -41 -164 -83 -18 -13 -41 -8 -0 -0 -0 -0
-0 -0 -0 -0 -0 -0 -0 -0 -0 -0 -0 -0 -0 -0 -0 -0 -0 -0 -0 -0 -0 -0 -53 -0 -0 -0 -0 -0 -0 -98 -140 -152 -110 -31 -202 -145 -182 -47 -26 -30 -15 -0 -0 -0 -0
-0 -0 -0 -0 -0 -0 -0 -0 -0 -0 -0 -0 -0 -0 -0 -0 -0 -0 -0 -0 -0 -0 -0 -0 -0 -0 -0 -0 -0 -197 -58 -101 -66 -43 -51 -31 -191 -23 -24 -30 -45 -0 -0 -0 -1
-0 -0 -0 -0 -0 -0 -0 -0 -0 -0 -0 -0 -0 -0 -0 -0 -0 -0 -0 -0 -0 -0 -0 -0 -0 -0 -0 -0 -1 -19 -84 -27 -23 -119 -161 -152 -130 -69 -73 -82 -61 -80 -0 -135 -80
-0 -0 -0 -0 -0 -0 -0 -0 -0 -0 -0 -0 -0 -0 -0 -0 -0 -0 -0 -0 -0 -0 -0 -0 -0 -0 -0 -0 -0 -32 -27 -47 -4 -180 -159 -104 -66 -365 -101 -103 -118 -45 -76 -113 -74
-0 -0 -0 -0 -0 -0 -0 -0 -0 -0 -0 -0 -0 -0 -0 -0 -0 -0 -0 -0 -0 -0 -0 -0 -0 -0 -0 -0 -0 -38 -14 -6 -13 -15 -115 -40 -96 -32 -52 -44 -78 -41 -69 -48 -123
-0 -0 -0 -0 -0 -0 -0 -0 -0 -0 -0 -0 -0 -0 -0 -0 -0 -0 -0 -0 -0 -0 -0 -0 -0 -0 -0 -0 -0 -0 -0 -16 -0 -0 -8 -81 -149 -92 -48 -32 -25 -37 -54 -51 -39
-0 -0 -0 -0 -0 -0 -0 -0 -0 -0 -0 -0 -0 -0 -0 -0 -0 -0 -0 -0 -0 -0 -0 -0 -0 -0 -0 -0 -0 -0 -0 -0 -0 -0 -0 -14 -26 -45 -21 -21 -34 -37 -48 -55 -53
-0 -0 -0 -0 -0 -0 -0 -0 -0 -0 -0 -0 -0 -0 -0 -0 -0 -0 -0 -0 -0 -0 -0 -0 -0 -0 -0 -0 -0 -0 -0 -0 -0 -0 -91 -12 -42 -19 -19 -21 -40 -32 -32 -43 -42
-0 -0 -0 -0 -0 -0 -0 -0 -0 -0 -0 -0 -0 -0 -0 -0 -0 -0 -0 -0 -0 -0 -0 -0 -0 -0 -0 -0 -0 -0 -0 -0 -6 -0 -0 -0 -60 -30 -53 -31 -50 -28 -21 -17 -41
-0 -0 -0 -0 -0 -0 -0 -0 -0 -0 -0 -0 -0 -0 -0 -0 -0 -0 -0 -0 -0 -0 -0 -0 -0 -0 -0 -0 -0 -0 -0 -0 -0 -132 -283 -16 -11 -5 -14 -47 -56 -44 -30 -22 -19
-0 -0 -0 -0 -0 -0 -0 -0 -0 -0 -0 -0 -0 -0 -0 -0 -0 -0 -0 -0 -0 -0 -0 -0 -0 -0 -0 -0 -0 -0 -0 -0 -0 -202 -247 -118 -55 -0 -46 -56 -64 -62 -40 -27 -12
-0 -0 -0 -0 -0 -0 -0 -0 -0 -0 -0 -0 -0 -0 -0 -0 -0 -0 -0 -0 -0 -0 -0 -0 -0 -0 -0 -0 -0 -0 -0 -0 -0 -0 -6 -93 -14 -19 -27 -60 -50 -67 -59 -41 -36
-0 -0 -0 -0 -0 -0 -0 -0 -0 -0 -0 -0 -0 -0 -0 -8 -0 -0 -0 -0 -0 -0 -0 -0 -0 -0 -0 -0 -0 -0 -0 -0 -0 -0 -18 -12 -19 -32 -33 -41 -47 -63 -85 -68 -32
-0 -0 -0 -0 -0 -0 -0 -0 -0 -0 -0 -0 -0 -0 -0 -0 -0 -0 -0 -0 -0 -0 -0 -0 -0 -0 -0 -0 -0 -0 -0 -0 -0 -0 -0 -29 -17 -32 -207 -30 -25 -40 -62 -70 -72
-0 -0 -0 -0 -0 -0 -0 -0 -0 -0 -0 -0 -0 -0 -0 -0 -0 -0 -0 -3 -31 -0 -0 -0 -0 -0 -0 -0 -0 -0 -0 -0 -0 -0 -0 -11 -53 -85 -82 -18 -41 -78 -49 -62 -65
-0 -0 -0 -0 -23 -0 -0 -0 -0 -0 -0 -0 -0 -0 -0 -0 -0 -0 -0 -0 -0 -31 -122 -0 -0 -0 -0 -0 -0 -0 -0 -0 -0 -0 -0 -3 -25 -43 -15 -39 -87 -83 -62 -104 -87
-0 -142 -0 -0 -0 -0 -0 -0 -0 -0 -0 -0 -0 -0 -0 -0 -0 -0 -0 -0 -0 -0 -202 -0 -0 -0 -0 -0 -11 -35 -6 -0 -0 -0 -0 -0 -64 -83 -79 -71 -57 -29 -55 -90 -71
-0 -0 -165 -225 -0 -0 -0 -0 -0 -0 -0 -0 -0 -0 -0 -0 -0 -90 -123 -121 -90 -258 -0 -0 -0 -0 -0 -17 -44 -43 -43 -69 -0 -0 -0 -34 -35 -58 -40 -54 -69 -84 -76 -84 -56
-0 -0 -0 -13 -0 -0 -0 -0 -3 -0 -0 -0 -0 -0 -0 -0 -82 -163 -220 -159 -95 -66 -79 -76 -70 -69 -75 -90 -41 -57 -58 -152 -151 -165 -181 -33 -21 -47 -80 -51 -82 -86 -143 -116 -102
-0 -0 -0 -0 -0 -0 -0 -0 -0 -0 -0 -0 -0 -0 -0 -0 -0 -0 -0 -0 -98 -71 -0 -37 -48 -11 -0 -59 -59 -47 -54 -100 -222 -184 -274 -112 -19 -78 -54 -28 -44 -86 -126 -126 -118
Wind_Speed
nan nan nan nan nan nan nan nan nan nan nan nan nan nan nan nan nan nan nan nan nan 36 21 17 26 40 38 nan 36 nan 19 21 21 21 17 12 12 nan 18 20 18 11 16 13 13
nan nan nan nan nan nan nan nan nan nan nan nan nan nan nan nan nan nan nan 17 21 28 19 21 32 28 34 33 31 32 32 nan 15 nan 21 12 17 nan 17 16 18 17 15 12 12
nan nan nan nan nan nan nan nan nan nan nan nan nan nan nan nan nan nan 14 15 19 21 nan 16 24 38 23 19 33 28 25 nan nan 36 12 nan 7 16 17 10 21 22 16 14 10
nan nan nan nan nan nan nan nan nan nan nan nan nan nan nan nan nan nan 16 16 16 14 nan nan 4 23 nan 34 34 26 26 17 26 13 11 7 5 12 12 13 21 19 15 nan nan
nan nan nan nan nan nan nan nan nan nan nan nan nan nan nan nan nan nan 14 13 13 nan nan nan 9 nan nan nan 14 nan nan 19 17 29 16 15 nan 4 13 18 18 nan nan nan nan
nan nan nan nan nan nan nan nan nan nan nan nan nan nan nan nan nan nan nan nan nan nan nan 14 9 nan nan nan nan nan nan nan 22 22 22 24 5 11 11 14 16 nan nan nan nan
nan nan nan nan nan nan nan nan nan nan nan nan nan nan nan nan nan nan nan nan nan nan nan nan nan nan nan nan nan nan 12 nan 26 29 29 41 nan nan 3 7 14 nan nan nan nan
nan nan nan nan nan nan nan nan nan nan nan nan nan nan nan nan nan nan nan nan nan nan nan nan nan nan nan nan nan nan 20 24 27 37 30 nan nan 14 11 7 13 nan nan nan nan
nan nan nan nan nan nan nan nan nan nan nan nan nan nan nan nan nan nan nan nan nan nan nan nan nan nan nan nan nan nan nan 29 24 45 37 20 nan 19 10 10 nan nan nan nan nan
nan nan nan nan nan nan nan nan nan nan nan nan nan nan nan nan nan nan nan nan nan nan nan nan nan nan nan nan nan nan nan nan 20 33 28 36 nan 33 19 14 15 nan nan nan nan
nan nan nan nan nan nan nan nan nan nan nan nan nan nan nan nan nan nan nan nan nan nan nan nan nan nan nan nan nan nan nan nan 14 35 31 36 32 nan 32 14 18 17 nan nan nan
nan nan nan nan nan nan nan nan nan nan nan nan nan nan nan nan nan nan nan nan nan nan nan nan nan nan nan nan nan nan nan nan nan 19 32 30 28 34 37 25 25 19 16 17 nan
nan nan nan nan nan nan nan nan nan nan nan nan nan nan nan nan nan nan nan nan nan nan nan nan nan nan nan nan nan nan nan nan nan nan nan 26 34 22 32 33 37 22 19 19 17
nan nan nan nan nan nan nan nan nan nan nan nan nan nan nan nan nan nan nan nan nan nan nan nan nan nan nan nan nan nan nan nan nan nan nan nan 21 12 18 27 37 35 22 13 16
nan nan nan nan nan nan nan nan nan nan nan nan nan nan nan nan nan nan nan nan nan nan nan nan nan nan nan nan nan nan nan nan nan nan nan nan nan nan 22 23 30 47 32 10 11
nan nan nan nan nan nan nan nan nan nan nan nan nan nan nan nan nan nan nan nan nan nan nan nan nan nan nan nan nan nan nan nan nan nan nan nan nan 11 19 37 44 44 32 19 9
nan nan nan nan nan nan nan nan nan nan nan nan nan nan nan nan nan nan nan nan nan nan nan nan nan nan nan nan nan nan nan nan nan nan nan nan nan nan nan 31 42 28 19 23 27
nan nan nan nan nan nan nan nan nan nan nan nan nan nan nan nan nan nan nan nan nan nan nan nan nan nan nan nan nan nan nan nan nan nan nan nan nan nan 20 25 25 25 20 24 26
nan nan nan nan nan nan nan nan nan nan nan nan nan nan nan nan nan nan nan nan nan nan nan nan nan nan nan nan nan nan nan nan nan nan nan nan nan 17 26 28 19 23 21 25 24
nan nan nan nan nan nan nan nan nan nan nan nan nan nan nan nan nan nan nan nan nan nan nan nan nan nan nan nan nan nan nan nan nan nan nan 7 10 17 15 27 29 30 24 21 17
nan nan nan nan nan nan nan nan nan nan nan nan nan nan nan nan nan nan nan nan nan nan nan nan nan nan nan nan nan nan nan nan nan nan nan 14 9 28 nan 11 25 27 28 20 17
nan nan nan nan nan nan nan nan nan nan nan nan nan nan nan nan nan nan nan nan nan nan nan nan nan nan nan nan nan nan nan nan nan nan nan nan nan nan 21 16 23 25 26 25 20
nan nan nan nan nan nan nan nan nan nan nan nan nan nan nan nan nan nan nan nan nan nan nan nan nan nan nan nan nan nan nan nan nan nan nan nan 25 31 22 26 23 30 27 24 22
nan nan nan nan nan nan nan nan nan nan nan nan nan nan nan nan nan nan nan nan nan nan nan nan nan nan nan nan nan nan nan nan nan nan nan nan 30 30 30 32 31 32 23 23 22
nan nan nan nan nan nan nan nan nan nan nan nan nan nan nan nan nan nan nan nan nan nan nan nan nan nan nan nan nan nan nan nan nan nan nan nan 34 34 43 42 37 29 22 20 20
nan nan nan nan nan nan nan nan nan nan nan nan nan nan nan nan nan nan nan nan nan nan nan nan nan nan nan nan 36 nan nan nan 27 30 41 28 29 36 29 38 36 29 32 24 23
nan nan nan nan nan nan nan nan nan nan nan nan nan nan nan nan nan nan nan nan nan nan nan nan nan nan nan nan nan 32 nan nan 30 36 29 20 15 36 44 37 28 37 30 31 27
Wind_Direction
nan nan nan nan nan nan nan nan nan nan nan nan nan nan nan nan nan nan nan nan nan 354 360 354 316 337 356 nan 19 nan 67 99 87 58 53 18 8 nan 348 351 359 355 357 2 33
nan nan nan nan nan nan nan nan nan nan nan nan nan nan nan nan nan nan nan 11 350 345 5 31 317 2 51 28 20 6 10 nan 31 nan 56 22 348 nan 15 347 337 335 342 2 53
nan nan nan nan nan nan nan nan nan nan nan nan nan nan nan nan nan nan 350 6 359 359 nan 90 89 62 14 20 18 8 19 nan nan 4 31 nan 42 312 276 325 342 336 344 9 75
nan nan nan nan nan nan nan nan nan nan nan nan nan nan nan nan nan nan 359 357 0 13 nan nan 80 87 nan 47 27 276 96 46 346 310 280 60 211 162 17 358 335 337 340 nan nan
nan nan nan nan nan nan nan nan nan nan nan nan nan nan nan nan nan nan 344 351 2 nan nan nan 91 nan nan nan 349 nan nan 195 114 325 336 285 nan 320 105 331 340 nan nan nan nan
nan nan nan nan nan nan nan nan nan nan nan nan nan nan nan nan nan nan nan nan nan nan nan 57 95 nan nan nan nan nan nan nan 79 10 345 309 279 278 292 338 340 nan nan nan nan
nan nan nan nan nan nan nan nan nan nan nan nan nan nan nan nan nan nan nan nan nan nan nan nan nan nan nan nan nan nan 34 nan 69 48 356 349 nan nan 30 58 350 nan nan nan nan
nan nan nan nan nan nan nan nan nan nan nan nan nan nan nan nan nan nan nan nan nan nan nan nan nan nan nan nan nan nan 20 34 41 25 14 nan nan 45 48 57 359 nan nan nan nan
nan nan nan nan nan nan nan nan nan nan nan nan nan nan nan nan nan nan nan nan nan nan nan nan nan nan nan nan nan nan nan 25 358 15 334 336 nan 114 97 78 nan nan nan nan nan
nan nan nan nan nan nan nan nan nan nan nan nan nan nan nan nan nan nan nan nan nan nan nan nan nan nan nan nan nan nan nan nan 26 346 326 309 nan 77 63 80 90 nan nan nan nan
nan nan nan nan nan nan nan nan nan nan nan nan nan nan nan nan nan nan nan nan nan nan nan nan nan nan nan nan nan nan nan nan 340 340 319 350 18 nan 39 66 84 33 nan nan nan
nan nan nan nan nan nan nan nan nan nan nan nan nan nan nan nan nan nan nan nan nan nan nan nan nan nan nan nan nan nan nan nan nan 279 314 348 3 26 27 42 44 22 15 14 nan
nan nan nan nan nan nan nan nan nan nan nan nan nan nan nan nan nan nan nan nan nan nan nan nan nan nan nan nan nan nan nan nan nan nan nan 331 322 22 25 19 12 10 4 4 12
nan nan nan nan nan nan nan nan nan nan nan nan nan nan nan nan nan nan nan nan nan nan nan nan nan nan nan nan nan nan nan nan nan nan nan nan 309 358 6 16 360 8 351 357 1
nan nan nan nan nan nan nan nan nan nan nan nan nan nan nan nan nan nan nan nan nan nan nan nan nan nan nan nan nan nan nan nan nan nan nan nan nan nan 359 9 358 353 350 6 351
nan nan nan nan nan nan nan nan nan nan nan nan nan nan nan nan nan nan nan nan nan nan nan nan nan nan nan nan nan nan nan nan nan nan nan nan nan 70 358 352 347 350 352 359 343
nan nan nan nan nan nan nan nan nan nan nan nan nan nan nan nan nan nan nan nan nan nan nan nan nan nan nan nan nan nan nan nan nan nan nan nan nan nan nan 332 343 359 3 343 343
nan nan nan nan nan nan nan nan nan nan nan nan nan nan nan nan nan nan nan nan nan nan nan nan nan nan nan nan nan nan nan nan nan nan nan nan nan nan 294 286 343 352 342 323 325
nan nan nan nan nan nan nan nan nan nan nan nan nan nan nan nan nan nan nan nan nan nan nan nan nan nan nan nan nan nan nan nan nan nan nan nan nan 211 267 284 298 333 342 335 331
nan nan nan nan nan nan nan nan nan nan nan nan nan nan nan nan nan nan nan nan nan nan nan nan nan nan nan nan nan nan nan nan nan nan nan 173 292 239 240 293 314 315 334 332 349
nan nan nan nan nan nan nan nan nan nan nan nan nan nan nan nan nan nan nan nan nan nan nan nan nan nan nan nan nan nan nan nan nan nan nan 270 284 290 nan 327 298 315 328 338 329
nan nan nan nan nan nan nan nan nan nan nan nan nan nan nan nan nan nan nan nan nan nan nan nan nan nan nan nan nan nan nan nan nan nan nan nan nan nan 360 223 262 294 314 330 321
nan nan nan nan nan nan nan nan nan nan nan nan nan nan nan nan nan nan nan nan nan nan nan nan nan nan nan nan nan nan nan nan nan nan nan nan 298 306 269 227 261 289 287 298 312
nan nan nan nan nan nan nan nan nan nan nan nan nan nan nan nan nan nan nan nan nan nan nan nan nan nan nan nan nan nan nan nan nan nan nan nan 286 269 242 245 255 271 266 287 287
nan nan nan nan nan nan nan nan nan nan nan nan nan nan nan nan nan nan nan nan nan nan nan nan nan nan nan nan nan nan nan nan nan nan nan nan 283 260 251 252 268 267 249 263 284
nan nan nan nan nan nan nan nan nan nan nan nan nan nan nan nan nan nan nan nan nan nan nan nan nan nan nan nan 203 nan nan nan 198 214 203 266 256 261 272 268 269 245 253 242 255
nan nan nan nan nan nan nan nan nan nan nan nan nan nan nan nan nan nan nan nan nan nan nan nan nan nan nan nan nan 217 nan nan 202 220 196 233 264 278 272 278 286 281 259 248 244